Wind_Speed
9 8 9 9 10 9 9 8 8 8 6 6 7 8 9 11 12 11 10 9 8 8 8 8 9 8 8 7 7 7 8 8 9 11 11 7 5 6 8 7 8 12 16 17 19 20 19 16 15 15 13 12 13 12 13 11 9 9 7 8 7 8 6 4 6 2 1 5 5 5 6 5 3 4 4 7 7 10 9 5 7 4 4 6 9 16 19 22
10 9 9 9 9 9 9 9 8 8 7 6 7 8 9 10 11 11 11 9 9 8 8 9 9 8 8 7 7 7 8 8 10 10 7 2 2 3 5 8 9 12 15 17 20 20 18 18 16 16 15 13 12 11 13 11 10 10 7 7 8 6 3 2 2 1 0 2 4 4 5 6 3 4 5 7 8 10 9 7 8 6 7 9 13 16 18 22
11 10 10 9 9 9 9 9 9 9 8 7 7 8 8 9 10 10 10 10 10 10 9 10 8 8 8 7 7 7 7 9 9 4 3 2 0 1 3 7 9 11 14 16 17 17 16 16 17 17 16 13 12 12 13 11 11 12 8 7 8 4 2 3 3 2 0 3 3 2 4 4 4 2 5 6 8 11 9 9 10 9 10 12 15 17 17 21
14 12 11 10 9 9 9 9 9 9 9 8 7 8 9 9 9 9 10 10 10 10 10 11 9 8 8 7 7 6 8 9 3 5 6 2 2 2 1 5 9 12 14 15 16 15 13 14 16 17 15 12 12 13 12 12 11 9 9 9 5 3 5 5 5 3 1 3 3 3 2 0 3 2 3 5 9 10 9 9 8 8 13 16 17 18 18 21
16 15 13 11 10 9 9 9 9 9 9 8 8 8 9 9 8 8 9 9 10 10 11 11 10 10 8 7 6 6 8 5 5 6 4 2 1 3 2 5 10 13 15 15 15 14 13 14 15 16 14 11 12 12 13 15 11 6 10 12 5 3 6 4 5 3 1 3 3 3 3 0 1 3 3 6 8 6 4 5 3 4 12 18 18 19 19 20
17 16 15 13 11 10 9 9 9 9 9 9 8 8 9 9 9 8 9 9 9 10 11 11 11 11 9 8 7 5 7 2 6 4 4 2 1 2 3 6 11 14 16 14 13 13 14 15 16 16 14 11 11 12 12 15 12 7 10 12 8 7 7 3 3 3 3 5 5 3 3 2 4 5 3 8 5 4 1 2 2 4 9 16 18 19 19 19
16 17 17 15 13 11 10 9 9 9 9 9 9 9 9 9 9 8 9 9 9 10 11 11 12 12 11 9 7 5 7 4 2 5 3 3 3 2 2 6 11 15 16 13 13 13 14 16 17 15 12 10 11 13 12 13 13 11 8 9 10 10 9 8 6 6 5 7 6 3 5 5 7 4 2 8 6 1 4 6 4 5 10 14 16 17 18 19
16 16 16 16 15 13 11 10 10 9 9 9 9 8 9 10 10 9 9 10 9 10 10 11 11 12 12 10 8 7 7 6 6 7 4 4 4 2 2 6 10 14 15 14 13 13 12 15 16 14 11 9 10 12 11 11 12 14 10 7 9 9 10 11 10 9 9 9 6 6 8 7 6 4 5 7 5 3 6 6 6 9 12 14 14 16 18 18
15 15 15 16 16 15 12 11 10 10 9 9 9 8 9 10 11 10 9 10 10 10 10 10 11 12 12 11 9 8 5 5 6 6 4 4 4 3 4 5 8 13 14 13 12 12 12 13 14 12 9 7 10 11 12 11 9 13 15 9 8 10 10 11 11 11 11 9 6 8 10 6 4 5 7 8 5 3 4 4 9 12 13 14 13 15 17 17
15 15 15 15 15 15 14 12 11 10 10 9 9 9 10 11 12 11 10 10 10 11 11 10 11 12 12 11 9 6 3 5 4 5 5 5 4 4 6 5 7 12 12 12 12 12 12 11 11 10 8 7 10 10 13 12 4 8 15 12 10 11 10 10 12 11 10 9 9 10 9 5 5 6 8 8 6 4 6 8 11 12 12 13 13 14 16 16
15 15 15 14 14 15 15 14 12 11 11 10 9 9 10 11 12 11 11 11 11 12 12 12 12 12 13 11 9 6 2 5 4 6 6 5 5 4 6 6 7 11 11 11 11 11 11 8 8 9 6 6 10 9 12 12 4 4 9 9 11 12 11 12 13 12 9 8 11 11 7 5 7 8 7 9 9 7 9 10 11 11 11 12 12 14 15 14
15 15 14 14 14 14 14 14 14 12 11 11 10 10 9 10 11 12 12 12 12 12 12 13 13 12 14 13 11 8 7 9 6 6 6 5 5 6 7 7 7 10 9 10 10 10 10 7 10 10 4 6 9 7 9 11 8 6 7 8 10 11 11 14 14 12 10 8 9 9 7 7 10 11 8 9 9 9 10 10 11 10 11 12 12 14 14 13
15 14 14 14 14 13 13 14 14 14 12 11 11 10 10 10 10 11 12 12 12 12 13 13 13 14 13 10 9 9 8 10 9 7 7 6 5 6 9 10 10 9 8 8 8 10 10 8 9 8 4 7 7 4 5 9 9 8 8 8 8 8 10 14 14 10 10 7 8 8 8 9 13 14 10 10 10 11 11 10 11 10 10 12 13 14 14 13
15 14 14 14 13 13 13 13 14 14 13 11 10 10 10 10 10 11 11 13 13 13 14 13 13 12 9 9 10 11 10 10 12 10 8 6 5 5 8 12 11 8 7 6 6 10 11 9 6 5 6 6 3 4 6 9 8 8 8 7 7 7 7 12 12 11 11 6 9 11 7 7 12 15 14 12 12 12 11 11 11 11 11 12 14 15 14 13
15 15 14 14 13 13 13 12 13 13 13 12 10 10 9 9 10 10 11 12 12 13 13 13 12 9 8 12 11 9 8 9 10 11 10 7 5 4 7 13 12 8 7 5 6 10 11 9 6 6 7 5 3 7 7 7 7 7 7 7 8 8 5 10 11 12 11 7 11 12 7 8 8 14 15 12 13 13 11 12 11 11 12 12 14 15 14 12
16 15 15 14 14 13 13 12 12 12 13 12 11 10 10 10 11 11 12 11 12 13 11 10 8 6 7 7 3 1 3 5 7 10 10 9 7 5 8 13 12 9 8 6 7 9 10 10 6 5 6 6 7 8 6 6 7 7 7 7 8 9 7 7 10 12 10 6 12 12 9 7 4 11 14 12 12 12 11 12 11 11 12 12 14 15 14 12
17 16 15 15 14 14 13 12 12 12 12 12 12 11 11 11 12 12 11 12 12 10 8 8 6 6 7 4 3 3 5 3 5 7 9 10 9 7 10 13 12 10 9 8 8 10 10 9 6 4 6 7 7 7 7 7 7 6 8 7 6 9 9 6 9 11 9 7 11 12 11 8 3 8 12 12 12 12 11 11 11 10 11 12 13 15 14 12
17 17 16 15 14 14 14 12 12 11 11 12 12 12 11 12 12 12 13 12 9 6 7 7 5 4 5 6 4 4 5 1 3 5 7 11 10 9 12 12 12 12 12 10 9 10 10 9 7 5 6 7 6 7 8 6 7 7 8 7 6 8 9 7 6 8 10 10 11 11 11 12 6 7 10 12 11 11 10 10 10 10 10 12 13 14 15 14
17 17 16 16 15 14 14 13 12 11 11 11 12 12 11 11 11 11 11 7 5 5 6 4 8 5 5 4 6 5 3 4 1 3 9 14 12 11 11 11 14 16 13 10 10 11 9 7 7 6 6 8 8 10 7 3 4 7 8 8 7 7 8 9 4 6 5 8 10 11 10 11 11 9 11 12 12 10 9 9 9 10 10 12 13 13 14 15
18 17 17 16 15 15 15 14 13 11 10 10 11 11 9 8 7 5 5 8 12 13 13 9 12 14 12 7 6 7 7 6 3 5 12 16 15 13 11 13 15 14 11 9 9 9 8 7 7 8 7 8 10 8 3 3 2 4 5 7 7 6 7 9 6 5 1 5 9 11 9 11 12 10 11 12 12 11 10 10 9 10 11 12 13 13 13 14
18 18 17 17 16 16 15 14 13 12 10 10 10 8 6 7 5 3 5 12 16 15 17 17 15 17 15 7 4 5 5 5 5 7 13 17 16 13 12 14 13 10 9 7 7 6 6 7 7 8 4 4 5 3 2 2 3 5 6 7 7 7 6 6 5 4 2 5 7 8 9 12 9 7 10 12 11 10 11 11 10 10 10 11 13 13 13 13
18 18 18 17 16 16 15 14 13 12 11 9 7 5 5 6 7 8 9 12 16 15 18 19 15 17 16 11 9 9 6 6 7 10 15 18 17 13 12 13 11 9 8 7 6 6 7 8 7 6 3 3 3 2 4 5 6 6 6 6 6 7 6 5 5 4 4 5 5 6 9 8 5 5 9 11 10 10 11 11 10 11 10 11 13 14 14 14
18 18 18 17 16 16 15 15 13 12 11 7 5 4 6 7 8 10 9 10 15 14 14 15 14 15 15 14 15 14 10 10 10 13 18 20 17 15 12 12 11 9 10 10 8 7 6 6 7 7 5 4 5 5 7 6 6 8 6 7 6 6 7 4 6 6 4 3 4 4 7 5 6 6 7 8 7 8 10 10 10 10 10 10 12 14 14 15
18 18 18 18 17 16 15 15 13 12 9 7 6 5 7 7 7 9 7 10 12 8 8 10 10 11 12 10 12 16 14 12 11 13 20 21 17 14 12 12 12 8 9 12 11 9 5 3 4 7 7 8 7 7 9 7 7 9 8 9 6 6 8 4 5 6 4 4 4 6 7 6 7 9 8 5 4 7 9 10 11 11 10 10 11 13 14 15
19 18 18 18 17 16 16 15 12 8 7 7 7 5 6 6 7 7 6 8 8 5 6 6 6 7 9 9 11 15 13 12 12 13 21 22 18 13 10 11 10 8 11 13 11 10 5 6 6 8 8 9 8 7 10 9 7 8 10 12 9 5 6 3 4 5 6 6 6 6 7 6 8 11 10 7 6 8 9 10 11 12 11 11 12 14 14 15
19 19 19 19 18 17 15 11 8 7 8 8 6 6 5 5 6 6 4 5 5 2 4 4 3 4 8 9 13 14 10 12 13 13 20 21 17 13 9 9 8 7 9 10 7 7 3 6 6 7 7 10 9 7 9 10 8 6 9 14 12 6 4 4 5 6 6 3 4 4 6 5 8 10 10 9 9 10 10 10 11 12 13 12 13 14 15 15
20 19 19 19 18 17 14 9 9 10 8 5 6 7 5 4 4 4 3 5 4 1 3 3 3 4 6 9 17 13 4 10 13 13 19 19 17 14 9 9 8 5 5 5 5 5 5 7 6 7 8 8 8 7 9 11 9 3 7 12 13 9 7 6 6 7 4 1 4 6 7 4 7 8 9 9 9 10 11 11 11 12 13 13 13 13 14 15
20 19 20 19 18 18 16 13 12 10 8 8 10 8 5 3 3 2 4 4 2 1 2 4 3 3 4 9 19 10 1 12 13 13 20 19 16 14 11 9 9 8 8 8 5 4 8 10 9 10 9 7 7 5 8 13 10 2 5 6 9 8 7 6 7 6 3 2 6 8 5 6 7 7 7 8 9 10 11 11 11 12 12 12 13 13 14 14
19 19 20 20 18 17 16 15 12 8 9 10 11 9 5 1 1 3 4 3 2 1 2 4 4 5 6 9 16 10 3 8 7 11 19 18 15 12 8 7 10 8 11 12 7 4 5 6 6 10 9 5 3 1 3 13 8 3 5 5 6 6 4 5 7 6 4 6 8 7 5 6 6 8 7 7 7 8 9 8 8 10 11 11 11 11 12 13
19 20 20 20 19 17 16 14 10 8 9 10 10 7 4 3 4 5 5 2 1 2 4 4 4 6 9 10 12 11 6 5 6 13 18 16 16 12 5 4 8 6 8 11 10 1 3 1 2 7 7 1 3 4 0 7 4 2 6 8 7 6 5 4 6 4 5 8 7 6 4 6 4 7 7 5 2 2 5 6 6 5 6 8 8 9 11 13
19 20 21 21 19 16 15 12 8 6 7 10 10 7 5 5 5 6 5 1 3 3 5 4 4 6 10 10 9 11 8 4 9 15 13 11 13 12 7 6 6 6 6 8 9 7 6 5 3 6 5 2 2 3 2 3 4 5 8 8 7 6 5 6 5 5 7 7 4 5 3 7 6 5 6 6 5 4 3 3 4 3 2 2 5 8 9 10
19 19 19 19 17 15 13 11 9 8 8 9 10 8 7 6 6 7 4 1 2 3 3 2 4 4 7 9 9 12 10 6 10 14 12 10 10 9 10 8 6 7 7 7 8 8 8 9 8 6 6 7 7 4 5 5 6 7 8 7 7 6 5 7 7 7 8 4 4 3 3 7 5 3 6 7 7 5 4 4 4 3 2 1 1 6 8 9
18 17 17 16 15 13 12 12 13 12 11 10 10 9 7 7 7 8 7 4 1 2 1 1 2 2 4 7 8 11 12 8 10 12 12 12 10 10 12 10 9 9 6 6 8 7 7 9 11 8 6 9 10 5 5 7 7 9 9 8 8 6 6 7 7 7 7 3 4 3 2 7 7 4 7 6 6 5 4 4 3 4 3 2 0 3 7 8
17 15 14 12 11 9 10 11 11 12 13 12 10 9 9 9 7 6 9 8 2 1 1 1 2 3 5 6 5 9 11 9 10 10 10 12 9 9 11 10 11 10 5 5 6 7 9 8 11 11 6 10 13 10 7 7 9 10 9 8 8 6 5 6 6 6 7 4 5 4 3 6 7 4 6 6 6 5 5 6 5 6 5 4 4 4 6 7
16 14 11 8 7 7 8 10 10 11 14 13 9 8 10 9 6 6 7 7 5 5 4 3 4 6 7 5 4 8 7 7 11 11 8 10 9 9 10 9 12 11 6 6 4 5 9 6 7 6 2 7 12 10 8 8 9 8 6 7 7 6 5 2 1 1 3 4 4 5 4 2 2 4 5 4 4 7 7 8 9 9 8 8 8 7 7 7
14 11 7 4 6 9 9 9 8 10 15 13 9 9 9 8 6 5 3 3 5 5 6 6 6 7 7 6 6 8 6 5 10 11 7 10 10 10 10 8 12 14 10 6 4 4 8 4 7 7 3 6 6 5 7 7 5 6 7 8 3 2 4 3 2 2 1 6 4 5 5 3 4 4 5 4 4 7 8 8 10 10 10 10 10 9 9 8
12 7 2 3 8 12 11 10 8 10 15 12 9 8 8 8 6 3 1 1 2 3 6 7 5 5 6 6 6 9 9 6 9 10 8 9 9 9 11 8 9 14 14 11 6 4 7 4 6 7 7 5 1 4 6 4 4 4 7 7 3 1 4 4 4 3 4 8 4 5 8 7 6 5 4 4 4 7 8 8 9 10 11 12 12 11 11 11
12 5 1 6 12 12 10 10 8 11 13 10 10 9 8 7 5 2 1 1 1 3 6 6 3 2 5 6 5 7 9 8 9 9 8 9 5 4 9 8 7 11 13 14 8 3 6 5 4 4 3 5 5 6 6 5 4 4 3 5 5 4 6 6 5 5 6 8 5 6 9 8 7 5 6 5 4 7 7 7 9 10 12 13 14 14 13 13
10 2 0 11 15 11 6 9 10 12 12 9 9 8 7 7 6 3 2 2 3 3 5 4 2 2 4 4 3 4 7 8 8 8 7 7 5 2 2 3 5 5 6 10 8 3 4 6 3 4 2 4 6 7 8 8 7 3 3 5 5 5 5 5 5 5 6 7 6 6 8 7 4 3 6 6 5 5 5 7 8 10 12 12 13 13 12 12
8 2 2 11 14 10 3 10 11 10 9 8 8 6 4 6 7 6 5 4 4 4 3 2 2 2 2 3 3 2 5 6 6 7 6 5 4 2 3 2 2 2 1 6 7 4 3 5 4 5 5 4 5 5 6 6 7 7 7 7 6 4 3 4 5 5 5 6 6 6 7 4 3 5 4 5 4 2 3 6 8 9 11 11 11 11 10 9
6 1 5 10 9 8 5 7 7 7 7 7 8 7 4 3 5 7 8 6 6 5 3 4 4 4 3 3 3 1 3 5 7 7 6 6 5 2 4 4 1 1 2 5 6 4 3 4 6 5 5 6 3 3 2 4 3 5 8 9 9 7 5 6 7 6 5 6 5 6 7 2 5 3 3 4 3 1 4 7 9 9 11 11 10 10 8 8
6 1 6 10 6 5 2 4 4 4 6 5 5 6 4 3 4 5 6 7 8 6 4 5 6 6 5 5 4 3 4 6 6 6 6 7 6 3 4 3 4 4 1 2 2 1 1 2 6 6 4 3 5 6 3 3 3 3 4 5 8 8 8 9 8 6 6 5 4 6 6 1 5 4 4 4 3 4 7 10 11 10 11 11 11 11 11 11
7 4 7 12 7 3 4 4 2 4 5 2 2 5 5 4 6 6 4 5 7 6 5 6 6 6 5 4 5 5 5 5 5 4 5 7 6 6 4 3 4 4 3 1 3 3 0 2 6 7 4 2 5 4 2 1 2 5 3 1 3 5 5 6 5 3 5 6 5 6 6 2 4 4 4 5 6 7 9 12 13 12 13 13 14 14 14 15
5 3 7 14 10 2 4 3 1 3 4 2 3 4 5 4 4 5 5 2 1 3 4 4 3 3 3 2 4 5 3 4 4 2 2 4 4 5 2 3 4 2 3 2 2 1 1 2 4 7 7 6 6 6 5 4 4 4 1 2 2 3 2 3 4 3 6 8 9 8 5 3 4 4 5 7 8 8 8 12 13 14 15 15 15 15 14 15
3 1 4 12 14 9 4 4 4 3 3 3 4 1 3 4 2 3 1 1 4 2 2 2 1 2 3 3 4 5 3 3 3 1 1 3 5 5 3 2 6 6 10 11 8 4 1 2 3 5 7 7 7 5 3 4 4 3 2 3 2 1 2 3 5 7 7 7 9 9 3 5 6 6 7 8 9 8 8 11 14 15 15 14 15 15 14 15
4 3 4 6 11 13 10 8 6 3 3 3 2 2 2 4 4 4 2 3 5 3 2 2 2 3 3 4 5 4 3 4 3 2 3 4 6 4 4 5 7 9 14 19 16 7 2 4 5 4 2 2 2 3 3 1 4 5 4 5 4 1 1 4 7 8 6 6 7 5 5 10 8 8 8 7 8 8 8 11 13 14 13 13 14 14 14 14
3 4 5 4 5 8 9 10 9 4 3 3 1 2 3 2 3 3 4 4 4 4 3 3 3 2 3 4 5 4 2 4 3 2 2 3 5 6 6 7 10 9 9 14 14 8 4 3 4 6 7 6 7 8 6 4 6 6 6 6 6 5 1 2 3 4 5 5 6 5 12 12 9 8 7 6 7 7 8 11 13 14 14 14 15 16 16 16
4 3 5 3 3 5 6 7 9 8 7 5 1 2 4 5 5 5 4 3 4 5 3 3 6 4 1 2 4 3 2 4 4 3 2 4 5 7 7 7 7 6 6 7 7 5 4 4 3 4 7 7 8 9 8 7 8 8 8 9 9 9 7 5 4 6 6 2 2 7 13 12 9 8 6 6 7 8 10 12 13 15 14 15 16 17 17 16
5 5 5 4 4 5 3 5 8 10 10 7 5 6 7 9 10 8 6 3 4 7 6 4 7 8 4 1 2 2 2 1 4 4 2 2 3 4 5 6 5 5 6 6 4 3 3 5 8 8 7 5 4 7 8 8 7 7 8 8 8 9 9 9 7 7 8 8 7 11 15 13 8 7 7 7 8 10 12 13 14 15 15 15 17 17 17 17
5 3 3 3 6 7 5 5 7 7 8 8 6 8 9 10 10 9 9 8 6 7 9 7 8 9 9 8 5 6 6 4 4 5 4 3 2 1 2 2 2 3 5 5 4 3 2 5 10 8 6 5 2 2 5 7 7 6 5 6 6 6 6 7 7 6 7 8 10 12 13 10 6 7 9 10 10 11 12 13 15 15 14 16 18 18 18 18
8 6 4 2 4 6 5 6 5 4 6 7 6 7 8 10 10 7 8 12 11 9 10 9 7 5 8 12 11 9 7 6 4 5 5 3 3 4 3 3 3 1 4 4 4 4 3 5 8 7 6 6 6 5 2 2 4 7 6 2 4 4 3 5 4 4 3 5 10 9 8 7 7 8 11 12 13 13 13 14 15 15 15 16 18 18 17 17
8 8 6 3 3 6 6 6 6 4 4 5 5 5 6 9 11 6 4 8 13 13 12 11 8 4 7 11 11 9 8 7 5 5 4 2 3 4 4 4 5 3 1 2 3 4 5 6 7 7 7 5 8 8 5 2 3 6 5 1 4 4 4 5 4 4 4 1 3 3 5 9 10 10 11 12 12 13 13 13 13 14 15 16 17 17 17 17
Wind_Direction
330 323 317 313 309 306 305 308 315 322 325 328 333 342 345 349 353 352 350 341 330 318 316 318 319 320 313 311 310 309 306 298 293 284 285 288 272 256 242 224 200 195 191 180 180 183 180 184 185 184 183 185 200 201 191 198 204 203 224 228 229 230 220 216 209 217 92 103 81 58 9 345 98 113 140 151 145 146 154 145 152 131 88 106 115 138 147 159
343 334 326 319 315 311 308 305 305 311 317 321 321 331 339 345 352 354 354 351 344 333 325 322 321 322 317 317 319 314 310 302 294 283 276 266 268 264 228 216 200 195 188 178 180 180 180 185 182 181 185 187 193 189 187 192 200 211 225 228 233 235 215 219 243 293 12 50 49 57 11 354 56 120 162 169 150 160 170 154 163 144 120 125 129 144 151 163
357 348 338 327 321 317 314 308 300 302 310 315 313 319 331 339 348 352 353 354 352 349 343 337 331 327 322 323 324 318 316 308 299 271 179 146 4 342 213 207 201 193 181 177 181 184 187 188 181 183 191 195 191 187 193 187 195 219 229 232 233 235 232 224 234 224 293 351 6 37 6 5 37 117 187 182 158 173 177 157 174 168 149 145 144 155 156 167
9 359 350 339 330 324 320 313 300 298 301 307 307 309 320 328 339 346 348 352 353 355 358 354 345 334 330 330 325 323 319 305 271 154 157 154 63 47 207 193 193 186 174 174 181 187 193 189 185 189 198 202 192 193 197 182 189 211 218 240 249 222 233 212 198 208 261 327 319 340 308 84 32 340 214 187 169 178 178 157 174 175 161 159 155 164 166 172
14 8 1 350 341 332 326 320 310 302 297 300 299 300 308 315 327 338 342 348 352 356 1 0 353 343 341 335 325 326 314 295 141 149 173 157 83 51 78 170 180 178 169 170 176 182 188 185 187 193 204 206 187 194 202 191 199 213 217 240 267 219 231 198 179 214 259 287 285 288 275 40 348 276 244 220 192 153 154 154 172 175 168 168 163 168 174 177
12 11 7 359 350 339 333 329 322 314 303 296 293 295 299 304 314 326 332 338 349 355 360 1 356 353 351 339 330 322 299 293 119 165 196 171 186 72 88 152 169 174 166 167 170 176 183 182 188 195 205 211 194 198 203 191 200 225 220 226 236 229 238 228 204 230 254 264 264 267 296 321 261 239 242 250 233 85 44 266 222 188 172 170 166 170 177 181
8 10 8 5 358 347 340 334 328 321 311 297 290 292 289 293 302 312 320 325 341 347 354 357 353 358 356 346 340 306 272 272 192 206 211 205 188 115 99 144 165 174 169 172 174 176 181 184 194 199 205 211 201 202 197 185 198 228 229 209 219 230 237 246 244 245 253 261 263 279 288 268 248 238 231 245 245 335 278 263 234 187 168 167 167 172 180 185
2 4 5 6 2 355 346 336 332 323 314 302 292 286 282 287 291 299 307 313 329 336 345 352 350 355 353 353 342 284 248 240 234 227 217 202 184 155 146 151 171 176 176 183 181 185 187 191 199 200 209 211 201 200 189 187 203 225 236 213 210 222 232 242 247 249 253 255 250 256 263 254 249 261 254 234 218 250 266 251 205 175 164 166 169 174 181 187
356 358 0 2 2 360 351 340 334 327 320 308 296 285 279 281 284 289 294 303 315 323 335 342 343 346 343 349 330 282 225 203 225 220 202 187 177 180 175 171 180 176 182 191 188 196 194 198 202 200 220 213 198 199 188 199 209 217 229 227 215 223 231 237 241 245 248 245 234 238 242 231 238 256 242 220 193 217 234 190 172 166 164 166 169 178 181 185
351 353 354 355 357 358 355 346 337 333 327 315 304 293 281 278 281 284 287 295 303 311 324 330 337 335 333 341 318 284 177 185 206 185 180 173 165 180 187 193 190 180 186 191 193 200 199 206 201 202 236 217 199 200 191 208 220 209 225 231 232 237 234 235 241 241 243 239 225 234 236 196 189 233 221 187 177 188 167 157 163 165 167 167 170 179 183 184
348 348 348 349 351 352 354 350 342 335 330 323 314 303 291 283 282 282 285 289 294 303 313 319 326 324 325 324 290 277 224 201 173 158 173 166 162 177 198 208 195 187 189 192 197 199 202 211 189 192 224 197 192 196 196 211 230 210 222 229 232 239 235 233 240 235 235 233 220 228 236 183 181 223 215 155 159 172 159 160 164 167 167 167 171 176 183 185
346 345 344 344 345 346 347 348 345 338 331 326 319 311 303 293 287 285 284 285 290 296 303 310 315 318 321 306 270 265 245 216 187 166 172 167 168 177 195 208 197 192 196 200 203 199 200 196 189 201 204 173 182 184 192 203 219 221 219 232 222 224 231 226 228 226 223 218 201 209 225 202 194 214 201 146 156 166 165 168 163 167 168 167 172 175 182 186
343 342 341 340 340 341 340 342 343 340 333 326 322 317 308 301 294 287 283 283 286 289 295 303 307 313 315 294 265 270 257 223 206 191 180 176 180 182 187 190 190 195 200 206 205 196 196 185 192 215 208 195 185 144 158 179 206 217 215 242 226 219 229 216 213 210 213 202 173 197 230 215 201 203 186 156 168 169 170 176 167 170 168 168 175 178 183 187
341 340 339 337 336 336 336 336 337 338 335 327 322 320 315 311 303 295 290 285 284 287 292 296 302 310 301 279 280 283 264 230 218 208 197 192 186 191 187 180 181 191 190 195 195 189 193 186 195 217 203 220 200 142 170 175 197 211 206 230 233 239 221 188 192 199 203 182 175 207 241 231 198 182 174 166 175 179 181 180 172 172 168 170 177 181 183 185
339 339 337 335 334 332 332 331 330 333 334 329 321 321 322 318 314 308 298 290 287 287 288 293 298 304 286 276 286 285 249 220 222 215 212 209 189 192 193 181 177 184 180 171 177 182 187 188 202 209 189 210 207 186 194 182 194 208 207 216 219 236 206 167 177 198 205 171 183 210 234 240 199 159 164 170 174 184 191 180 172 170 168 171 177 182 183 183
338 337 336 333 332 329 328 328 326 326 328 328 321 318 321 320 318 310 299 292 287 285 287 293 290 290 286 269 251 246 177 183 211 212 214 205 189 194 188 177 172 176 173 166 167 171 181 191 211 228 194 193 198 200 199 186 196 202 216 224 206 214 217 179 171 195 213 173 183 211 235 240 169 145 162 169 178 187 194 183 171 168 168 174 179 184 186 186
337 336 335 332 330 327 325 324 323 321 322 324 320 315 314 315 313 307 299 290 286 287 285 278 270 274 265 227 191 176 135 137 185 194 206 195 186 187 172 167 168 166 158 156 158 161 179 193 204 218 207 207 203 204 203 198 198 189 211 228 205 212 226 196 163 178 202 199 198 209 231 243 147 143 166 172 184 191 195 186 171 169 171 176 183 189 192 191
337 336 334 331 329 325 321 321 320 318 317 318 318 315 310 310 310 301 292 287 285 288 284 255 226 250 230 210 233 184 141 111 174 178 191 176 165 164 164 163 162 159 154 155 163 172 184 195 208 205 194 205 204 205 211 209 204 191 200 216 207 212 227 218 166 155 181 204 214 205 217 236 213 167 172 178 188 192 193 185 173 172 173 178 186 194 198 202
335 334 333 331 328 324 320 319 317 314 314 313 316 316 310 308 303 291 283 273 241 256 287 222 201 266 299 250 242 209 223 274 231 185 175 161 150 152 162 162 159 162 163 165 174 183 189 190 208 215 194 194 198 210 223 229 227 211 199 213 216 201 213 218 159 119 179 208 215 213 215 230 224 197 183 180 183 190 188 180 178 176 174 181 189 196 199 205
335 334 332 330 328 325 320 318 316 313 312 310 316 315 304 303 295 276 267 259 258 267 281 262 237 266 288 276 247 227 240 246 226 195 175 162 152 151 156 159 164 173 179 175 167 176 201 201 201 212 205 193 196 215 265 348 303 240 208 216 224 211 206 202 157 106 201 235 220 219 224 230 229 206 182 176 177 189 189 182 185 181 176 182 190 196 197 201
336 334 332 330 327 325 319 317 316 312 309 310 315 305 292 306 298 306 312 279 275 270 269 269 256 256 261 256 228 203 205 214 202 184 177 168 161 160 158 165 173 182 186 175 148 156 209 218 207 207 197 172 186 210 283 278 252 236 223 216 215 220 208 170 139 120 166 241 224 208 227 229 222 197 176 175 179 191 193 188 189 186 182 184 189 194 195 196
336 334 333 330 327 324 319 316 314 309 307 305 308 292 278 284 270 292 312 290 284 271 259 265 258 249 247 238 229 218 214 222 195 175 176 172 177 183 168 176 190 177 171 172 157 169 208 222 211 187 127 105 154 189 216 226 232 228 222 222 217 213 202 136 122 152 173 238 225 189 221 217 184 190 183 179 186 192 193 194 193 189 186 186 188 191 193 192
334 334 332 330 329 324 319 315 311 306 301 288 289 281 259 257 265 295 301 284 291 278 251 251 244 239 237 230 229 222 222 227 201 180 178 176 187 196 177 185 199 174 170 190 193 193 203 215 199 165 140 171 183 189 212 221 225 226 218 222 216 190 207 185 148 166 175 243 264 213 215 192 157 183 180 178 194 189 189 197 198 194 192 190 188 190 193 192
332 332 330 330 328 324 320 314 309 305 293 272 281 269 238 250 288 314 293 270 286 276 242 240 232 234 229 218 216 210 209 216 206 183 179 180 185 192 189 194 198 185 186 198 207 218 207 117 147 171 179 203 203 192 210 222 215 217 219 229 223 181 216 240 130 155 175 192 237 229 215 189 170 182 175 164 189 190 189 198 202 200 195 188 187 193 196 195
331 329 328 328 326 326 322 314 309 303 284 281 287 257 227 257 306 319 289 270 273 241 219 221 218 227 209 193 192 194 197 207 209 186 179 186 184 179 191 197 200 205 198 197 210 230 215 105 135 188 194 208 216 203 210 222 218 208 212 230 243 205 211 238 137 178 209 190 190 221 225 187 169 184 178 157 174 192 191 198 206 201 195 192 190 194 197 196
328 327 326 324 323 325 323 314 304 293 293 295 272 234 232 270 311 318 284 272 271 194 171 185 191 181 177 181 173 172 192 203 204 188 179 190 190 182 188 187 207 224 196 191 212 240 209 136 170 200 198 209 221 221 207 212 229 210 191 212 230 228 216 227 204 211 229 189 154 222 248 191 167 183 177 164 179 191 192 202 208 202 199 199 195 195 195 194
323 324 322 321 321 322 319 306 291 290 297 281 234 232 250 276 314 314 264 262 261 154 128 140 125 133 154 175 168 166 175 161 168 182 182 187 186 192 206 179 196 225 174 184 215 222 199 180 194 209 213 217 221 222 195 200 231 204 150 193 210 213 216 221 223 226 235 118 148 216 254 226 176 170 164 170 185 193 197 202 204 203 201 198 196 194 192 191
319 318 317 318 317 315 312 301 294 288 272 247 237 242 255 284 307 265 258 274 245 132 117 119 117 140 138 168 178 188 109 141 161 178 181 187 182 193 219 197 199 200 171 196 209 160 187 199 200 205 217 221 212 208 179 197 222 99 109 194 204 204 216 219 228 229 219 220 205 202 230 234 181 143 143 173 192 199 199 199 198 200 199 197 198 195 191 190
316 314 313 312 311 309 304 298 296 280 252 240 233 232 238 261 245 231 256 273 206 148 112 123 136 159 146 165 190 211 210 172 180 157 167 187 190 198 230 212 211 197 176 212 232 110 153 209 218 213 216 212 185 67 177 203 214 89 125 174 177 190 211 222 233 225 197 232 226 185 202 241 188 149 160 180 193 192 183 185 190 191 196 200 198 195 193 189
315 312 309 309 308 305 300 296 289 266 243 227 216 217 228 213 210 225 227 244 249 114 120 148 149 159 161 168 193 207 203 177 141 146 163 182 190 201 234 210 216 210 185 219 244 235 124 146 255 228 232 269 89 63 173 213 213 150 177 175 171 187 197 216 232 226 212 228 216 166 196 254 207 171 174 157 136 133 140 151 149 156 187 203 201 198 194 190
316 312 307 305 304 300 298 295 282 253 232 219 207 203 211 203 220 234 206 234 293 152 143 167 147 157 180 183 192 195 192 156 143 159 168 175 187 199 207 196 206 215 204 215 233 229 206 200 206 209 222 258 173 142 127 188 197 206 203 191 187 190 194 209 207 213 230 227 175 133 195 243 223 180 153 116 79 47 61 105 101 99 138 182 208 205 196 191
320 311 303 301 299 294 287 276 258 236 215 204 200 202 208 201 218 233 202 167 248 175 147 152 140 160 194 199 201 193 191 173 161 173 176 177 186 193 200 198 183 196 209 205 206 210 215 219 213 193 190 215 225 191 148 172 197 212 211 202 201 198 198 211 204 209 227 217 126 120 213 230 219 125 108 101 81 56 31 34 35 14 19 61 209 208 196 190
323 311 302 299 296 291 280 268 251 232 215 200 197 204 213 216 217 217 214 215 163 89 56 134 155 186 198 207 206 193 196 187 171 182 187 187 190 192 204 209 196 205 219 202 197 195 201 213 214 211 193 205 226 220 174 178 192 206 207 204 213 209 201 211 211 212 218 182 117 126 226 223 206 115 84 77 68 59 50 51 39 21 23 36 97 189 187 185
325 312 305 298 292 287 280 272 255 230 212 199 199 205 212 222 219 205 220 227 218 9 273 249 277 248 215 222 199 181 201 202 182 186 186 188 200 198 201 206 206 218 228 201 204 206 208 206 204 211 192 184 210 231 221 192 192 207 212 213 226 229 220 223 226 226 223 189 137 150 207 225 208 119 68 66 73 71 68 74 74 69 72 80 97 124 148 157
326 315 307 294 285 280 275 275 261 226 205 196 201 209 209 215 216 211 225 230 231 243 245 256 276 252 218 214 191 186 214 214 190 197 198 195 205 203 200 201 202 215 227 210 199 209 228 223 175 177 138 176 203 223 228 216 201 201 221 224 229 240 235 228 261 299 260 223 171 176 211 238 177 106 84 86 89 79 73 76 80 82 85 89 94 101 111 122
329 319 306 292 303 299 279 271 266 222 201 198 208 213 211 213 219 221 219 228 236 240 244 238 240 247 226 200 186 187 210 221 193 198 209 205 207 207 207 203 196 206 218 214 189 193 229 220 140 147 177 197 219 221 211 233 216 180 210 221 214 283 254 229 166 96 292 249 202 182 214 189 153 145 115 113 99 80 70 71 77 82 89 93 94 96 101 108
334 322 290 284 305 306 283 261 256 217 200 205 219 219 216 217 224 232 149 136 234 232 249 240 215 238 240 216 196 180 184 200 192 196 207 203 208 212 210 208 202 208 216 223 225 215 233 221 148 177 199 171 219 231 201 238 251 204 212 203 139 24 248 243 235 189 213 237 203 182 219 206 188 183 133 120 91 73 67 71 80 85 90 91 90 92 95 102
336 319 253 315 311 307 280 246 226 199 196 211 227 226 226 218 212 219 189 206 246 224 241 241 212 243 246 229 211 175 178 188 183 194 208 193 187 211 213 208 200 210 222 228 229 209 229 228 151 173 198 140 160 213 199 200 236 266 248 187 180 225 217 210 230 221 212 227 216 195 212 216 211 183 132 119 73 66 72 79 87 89 88 88 89 92 96 103
340 295 308 344 339 330 268 208 187 187 196 213 222 221 228 225 214 213 229 256 253 241 244 244 231 247 243 240 232 174 190 204 186 191 209 195 182 213 255 216 184 198 236 235 228 195 218 239 185 148 159 148 171 208 213 194 188 236 259 203 205 243 237 213 218 226 226 229 221 202 206 214 208 109 103 101 70 67 85 91 94 89 86 89 91 95 98 100
341 234 27 360 360 10 107 162 168 191 204 216 224 219 213 227 231 224 229 255 255 249 258 254 227 228 236 250 250 204 213 228 209 201 202 183 175 144 45 30 164 159 216 227 228 211 199 239 224 151 147 188 196 208 232 219 191 200 214 208 206 214 237 243 226 227 246 240 222 214 217 196 90 59 70 80 65 59 99 106 107 98 95 99 99 100 98 93
348 237 17 359 3 38 87 160 180 205 210 214 230 232 214 235 251 226 217 233 251 258 273 273 261 263 280 261 239 214 230 234 222 215 202 179 186 157 55 27 34 115 181 200 209 209 192 225 227 187 186 214 188 80 349 310 267 226 220 216 216 211 211 227 223 211 234 251 244 237 231 160 76 47 47 62 62 143 151 131 124 114 109 111 109 104 99 95
6 8 9 347 340 22 355 221 199 216 223 220 235 240 235 252 261 236 208 213 231 240 248 260 262 262 267 265 263 266 256 243 224 220 216 195 181 137 91 77 77 66 25 168 141 37 16 251 237 223 221 198 102 81 46 346 325 265 254 241 229 221 218 229 231 206 207 232 248 251 242 126 67 45 48 61 99 149 150 137 131 125 116 116 115 107 105 105
23 46 14 354 343 331 282 242 191 211 224 236 272 241 233 240 245 241 217 207 223 224 225 243 249 250 256 264 270 264 257 255 241 233 228 199 149 102 118 158 115 62 7 73 84 41 7 233 238 229 221 149 117 124 133 66 251 229 222 287 258 244 233 249 258 215 205 216 219 236 230 148 71 48 57 87 112 126 135 134 133 129 117 112 110 105 105 106
23 61 25 11 11 329 267 280 273 226 217 233 237 213 206 221 259 257 232 213 247 231 234 242 235 253 266 259 268 267 262 256 242 239 250 199 128 84 98 202 197 112 53 68 67 44 199 253 264 229 210 197 192 188 178 181 207 216 170 71 325 290 244 248 255 237 234 223 218 236 230 121 81 74 87 99 108 109 113 124 130 125 116 111 106 102 102 104
339 30 29 25 34 48 46 356 324 281 254 234 215 186 198 188 67 357 272 67 34 355 282 279 279 287 272 238 248 253 245 258 252 218 201 154 117 83 66 181 203 159 117 112 98 71 72 30 338 253 227 221 215 202 201 197 166 131 77 68 38 319 227 237 233 230 234 210 213 241 233 113 104 103 98 97 103 101 101 114 118 114 113 113 108 104 103 103
358 21 10 20 41 51 52 27 354 310 286 249 204 8 309 188 119 49 27 55 46 31 19 11 325 262 243 227 225 219 210 231 241 203 175 144 117 87 66 107 138 132 126 123 112 96 81 51 20 354 344 323 334 33 13 296 140 123 104 85 63 47 257 261 242 237 240 209 212 225 137 127 126 114 103 96 102 107 109 114 116 114 113 110 103 98 95 95
27 24 3 357 29 38 42 31 20 12 338 307 231 352 342 181 136 65 36 37 42 34 32 38 19 262 235 229 213 193 169 187 179 130 129 118 111 108 99 107 110 108 126 128 118 113 108 79 38 37 44 32 29 41 44 68 98 95 88 78 56 46 44 246 253 303 307 251 222 149 121 128 129 116 104 94 98 103 106 110 114 115 111 104 98 94 90 90
47 61 23 10 15 27 30 9 10 27 18 5 86 45 34 65 67 46 28 28 45 25 7 50 35 15 267 248 222 181 146 152 125 86 100 111 123 135 131 118 108 121 155 141 123 130 127 130 144 93 71 51 36 37 44 62 74 69 66 66 56 49 51 62 50 9 353 306 186 120 115 116 116 114 99 86 90 95 100 107 112 113 110 103 98 95 92 90
60 79 54 44 46 52 49 347 3 36 27 12 47 48 40 57 58 43 16 7 57 32 18 56 44 32 53 23 246 137 88 104 105 81 51 72 114 149 142 126 113 139 166 150 135 159 154 152 159 145 125 107 48 28 35 44 50 50 51 48 45 50 59 66 66 54 58 73 86 100 103 99 100 103 94 92 94 95 100 105 108 110 110 105 99 96 95 92
56 60 46 65 62 59 65 20 14 44 29 10 31 37 35 47 48 44 33 27 42 27 16 41 47 38 59 67 70 81 50 18 68 68 21 20 70 59 76 102 96 143 165 149 143 187 232 173 164 161 162 164 156 36 27 26 19 9 11 18 21 35 61 70 67 60 65 86 99 101 98 95 97 97 99 104 101 96 97 97 99 101 102 101 96 93 93 91
63 68 66 77 49 28 42 45 32 44 36 23 19 13 20 29 22 29 52 42 40 30 10 8 9 25 64 65 59 57 33 6 23 28 3 5 32 31 29 26 17 171 174 156 158 190 202 164 165 186 209 202 188 184 165 31 350 314 302 351 37 33 58 68 56 17 12 103 126 124 110 114 124 113 104 101 94 88 83 83 89 90 89 91 90 87 85 85
53 71 62 53 49 24 27 49 50 55 49 32 22 7 2 7 6 17 70 44 32 29 15 358 345 2 62 51 33 11 346 332 335 337 330 346 29 45 54 48 29 14 111 149 174 185 168 154 165 195 215 198 177 171 155 152 245 266 263 155 84 96 120 98 66 27 3 50 148 134 110 123 134 126 110 99 90 81 72 70 77 81 78 76 76 75 72 69
Height
1509 1508 1507 1507 1507 1506 1506 1506 1505 1505 1504 1503 1503 1502 1501 1500 1499 1498 1497 1496 1496 1495 1495 1494 1494 1493 1492 1492 1491 1490 1490 1489 1488 1488 1487 1486 1486 1485 1486 1486 1487 1488 1490 1492 1494 1495 1497 1499 1500 1501 1502 1503 1503 1502 1503 1504 1503 1503 1500 1498 1495 1489 1486 1484 1483 1485 1483 1484 1487 1489 1490 1487 1486 1488 1488 1489 1489 1490 1491 1492 1493 1494 1495 1496 1497 1497 1497 1498
1508 1507 1507 1506 1506 1505 1505 1505 1505 1504 1503 1503 1502 1501 1500 1500 1499 1498 1497 1496 1495 1495 1494 1493 1493 1492 1492 1491 1490 1490 1489 1488 1487 1486 1485 1485 1485 1485 1485 1485 1486 1488 1489 1491 1493 1495 1496 1498 1499 1500 1501 1501 1500 1500 1501 1501 1502 1500 1496 1495 1491 1484 1483 1483 1484 1485 1485 1488 1488 1489 1490 1488 1487 1488 1488 1488 1488 1490 1490 1492 1493 1494 1496 1496 1498 1498 1498 1499
1508 1507 1506 1506 1505 1505 1504 1504 1504 1503 1503 1502 1501 1501 1500 1499 1499 1498 1497 1496 1495 1494 1494 1493 1492 1492 1491 1490 1490 1489 1488 1487 1486 1485 1485 1485 1484 1484 1484 1485 1486 1487 1489 1491 1493 1495 1496 1497 1498 1499 1499 1498 1497 1499 1499 1499 1500 1497 1494 1493 1487 1483 1484 1485 1487 1488 1489 1490 1489 1489 1490 1488 1488 1488 1488 1486 1486 1488 1487 1489 1492 1492 1495 1496 1498 1499 1499 1500
1508 1507 1506 1505 1505 1504 1503 1503 1503 1502 1502 1501 1501 1500 1499 1499 1498 1497 1497 1496 1495 1494 1493 1493 1492 1491 1490 1490 1489 1488 1487 1486 1484 1484 1484 1484 1484 1484 1484 1484 1485 1487 1488 1491 1493 1494 1496 1497 1497 1498 1497 1495 1495 1497 1496 1497 1497 1495 1494 1490 1484 1484 1487 1487 1488 1490 1491 1492 1491 1491 1490 1488 1488 1488 1488 1486 1487 1488 1485 1486 1490 1491 1493 1495 1496 1499 1499 1500
1508 1507 1506 1505 1504 1503 1503 1502 1502 1501 1501 1500 1500 1499 1498 1498 1497 1497 1496 1495 1495 1494 1493 1492 1491 1491 1490 1490 1489 1488 1487 1484 1482 1484 1484 1484 1484 1483 1483 1484 1485 1486 1488 1490 1491 1493 1494 1496 1496 1497 1496 1492 1493 1495 1493 1494 1495 1493 1492 1488 1486 1488 1488 1486 1489 1491 1492 1493 1492 1491 1490 1489 1489 1488 1488 1486 1485 1486 1486 1487 1490 1491 1493 1494 1495 1498 1499 1500
1508 1507 1506 1505 1504 1503 1502 1502 1501 1500 1500 1499 1499 1498 1497 1497 1496 1496 1495 1495 1494 1494 1493 1492 1491 1491 1490 1489 1488 1488 1487 1483 1481 1484 1483 1483 1483 1483 1484 1484 1485 1486 1488 1490 1491 1493 1493 1495 1495 1494 1493 1490 1490 1491 1490 1492 1494 1492 1489 1488 1489 1490 1488 1488 1490 1492 1493 1493 1492 1491 1490 1490 1490 1488 1488 1487 1484 1486 1488 1489 1491 1492 1493 1494 1495 1497 1499 1501
1508 1507 1506 1504 1504 1502 1502 1501 1500 1499 1499 1498 1497 1497 1496 1496 1496 1495 1495 1494 1493 1493 1492 1492 1491 1490 1490 1489 1488 1487 1486 1484 1482 1483 1482 1483 1483 1483 1484 1484 1485 1486 1488 1490 1491 1492 1492 1493 1493 1492 1491 1489 1489 1488 1488 1491 1493 1491 1486 1486 1489 1489 1489 1489 1490 1491 1492 1492 1492 1492 1492 1490 1490 1488 1488 1488 1486 1488 1489 1489 1491 1492 1493 1495 1496 1498 1500 1502
1508 1507 1506 1505 1503 1502 1501 1500 1499 1499 1498 1497 1496 1496 1495 1495 1494 1494 1494 1493 1493 1492 1492 1491 1490 1490 1489 1488 1488 1486 1484 1484 1482 1482 1482 1482 1482 1483 1484 1484 1486 1487 1489 1490 1490 1491 1492 1492 1491 1490 1489 1487 1487 1487 1488 1491 1492 1490 1486 1485 1488 1489 1489 1489 1489 1490 1491 1491 1492 1492 1491 1489 1489 1489 1488 1487 1487 1488 1489 1489 1491 1492 1493 1495 1496 1498 1500 1502
1508 1507 1506 1505 1503 1502 1501 1500 1499 1498 1497 1496 1495 1495 1494 1493 1493 1493 1492 1492 1492 1491 1491 1491 1490 1489 1489 1488 1488 1484 1481 1481 1481 1481 1482 1482 1482 1483 1484 1485 1486 1487 1489 1489 1490 1491 1490 1490 1490 1489 1488 1486 1487 1487 1488 1490 1488 1486 1485 1485 1487 1487 1488 1488 1488 1489 1489 1489 1491 1491 1488 1488 1489 1489 1487 1486 1487 1488 1489 1490 1490 1492 1493 1495 1496 1498 1500 1501
1508 1507 1505 1504 1503 1502 1500 1499 1498 1497 1496 1495 1494 1494 1493 1492 1492 1491 1491 1491 1490 1490 1490 1490 1489 1489 1488 1487 1487 1481 1479 1481 1481 1481 1481 1481 1482 1482 1483 1485 1485 1487 1488 1489 1489 1490 1490 1490 1489 1490 1489 1487 1487 1486 1487 1487 1484 1484 1484 1484 1486 1486 1486 1487 1486 1487 1487 1487 1489 1488 1486 1486 1489 1489 1485 1484 1487 1488 1488 1490 1490 1492 1493 1495 1497 1498 1500 1501
1507 1506 1505 1504 1503 1501 1500 1499 1497 1496 1495 1494 1493 1492 1491 1491 1490 1490 1490 1489 1489 1489 1489 1488 1488 1488 1487 1487 1486 1481 1479 1481 1480 1480 1481 1481 1481 1482 1483 1484 1485 1487 1488 1488 1489 1489 1490 1490 1490 1491 1489 1486 1486 1486 1486 1486 1484 1485 1485 1485 1485 1484 1484 1485 1485 1485 1486 1485 1486 1485 1484 1486 1489 1488 1482 1482 1486 1487 1488 1489 1491 1492 1493 1495 1497 1498 1500 1501
1507 1506 1504 1503 1502 1501 1500 1498 1497 1496 1494 1493 1492 1491 1490 1490 1489 1489 1488 1488 1488 1487 1487 1487 1487 1486 1485 1485 1483 1480 1479 1480 1479 1480 1480 1480 1481 1482 1483 1484 1485 1486 1487 1488 1488 1488 1489 1489 1490 1489 1487 1485 1485 1486 1486 1485 1486 1486 1485 1484 1482 1482 1482 1482 1481 1482 1483 1482 1482 1484 1486 1486 1486 1484 1480 1483 1486 1486 1488 1489 1490 1492 1493 1495 1496 1498 1500 1501
1506 1505 1504 1503 1501 1500 1499 1498 1496 1495 1494 1493 1491 1490 1489 1488 1488 1487 1487 1487 1486 1486 1486 1486 1485 1485 1485 1482 1480 1478 1478 1478 1479 1479 1479 1480 1481 1481 1482 1483 1484 1486 1486 1487 1487 1488 1488 1489 1489 1489 1487 1485 1483 1485 1485 1485 1487 1485 1484 1483 1479 1480 1478 1475 1477 1480 1481 1481 1481 1485 1487 1482 1478 1479 1479 1483 1485 1485 1487 1488 1489 1491 1492 1495 1496 1498 1499 1501
1505 1504 1503 1502 1500 1499 1498 1497 1496 1494 1493 1492 1490 1489 1488 1487 1487 1486 1485 1485 1484 1485 1484 1484 1484 1484 1483 1480 1477 1477 1476 1477 1477 1478 1479 1479 1480 1480 1481 1481 1483 1484 1485 1486 1486 1487 1488 1488 1489 1489 1488 1486 1483 1485 1484 1484 1486 1482 1482 1482 1479 1478 1473 1469 1474 1477 1478 1479 1479 1483 1485 1476 1468 1473 1478 1481 1483 1484 1485 1487 1489 1490 1492 1494 1496 1498 1499 1500
1504 1503 1502 1501 1499 1498 1497 1496 1495 1494 1492 1491 1490 1488 1487 1487 1486 1485 1485 1483 1483 1483 1482 1483 1482 1482 1482 1478 1475 1474 1474 1475 1476 1477 1478 1478 1479 1480 1480 1481 1482 1483 1484 1485 1485 1486 1487 1488 1489 1487 1486 1486 1485 1484 1482 1482 1482 1479 1483 1483 1477 1476 1471 1467 1472 1474 1474 1477 1478 1481 1482 1473 1465 1470 1477 1480 1482 1483 1484 1485 1488 1490 1491 1494 1495 1497 1499 1500
1503 1502 1501 1499 1498 1497 1496 1495 1494 1493 1491 1490 1489 1488 1487 1486 1485 1484 1483 1482 1482 1481 1481 1481 1481 1482 1480 1475 1474 1474 1473 1475 1475 1476 1476 1477 1479 1479 1479 1480 1481 1483 1483 1484 1484 1486 1487 1488 1488 1486 1484 1485 1483 1481 1478 1480 1480 1478 1480 1478 1474 1475 1471 1467 1470 1471 1471 1474 1476 1478 1477 1471 1466 1471 1477 1479 1481 1482 1483 1484 1487 1489 1491 1493 1495 1497 1498 1500
1502 1501 1499 1498 1497 1496 1495 1494 1493 1492 1490 1489 1488 1487 1486 1485 1484 1483 1481 1481 1480 1480 1480 1480 1480 1481 1477 1473 1473 1473 1473 1474 1474 1474 1475 1476 1478 1478 1478 1480 1481 1483 1483 1484 1485 1486 1487 1487 1486 1485 1483 1481 1478 1476 1479 1483 1481 1477 1477 1473 1471 1472 1470 1467 1469 1469 1470 1473 1474 1475 1475 1471 1469 1472 1476 1478 1480 1481 1481 1483 1485 1488 1490 1492 1494 1496 1498 1499
1501 1499 1498 1497 1496 1495 1493 1492 1491 1490 1489 1488 1487 1486 1485 1483 1482 1481 1480 1479 1479 1479 1479 1478 1480 1479 1473 1472 1473 1472 1472 1473 1473 1473 1474 1475 1476 1477 1478 1479 1481 1482 1483 1484 1485 1485 1486 1485 1483 1480 1479 1479 1477 1475 1479 1479 1475 1474 1476 1474 1472 1472 1470 1467 1466 1468 1470 1472 1472 1473 1475 1472 1469 1472 1475 1477 1480 1480 1481 1482 1485 1487 1489 1491 1493 1495 1497 1499
1500 1498 1497 1496 1494 1493 1492 1491 1490 1489 1488 1487 1486 1485 1484 1482 1481 1479 1478 1478 1478 1477 1474 1474 1475 1472 1469 1471 1472 1471 1472 1472 1472 1473 1473 1474 1475 1477 1478 1479 1480 1481 1481 1481 1482 1483 1483 1482 1482 1480 1477 1477 1476 1473 1472 1470 1468 1469 1470 1471 1470 1470 1469 1465 1464 1467 1469 1471 1471 1471 1473 1471 1469 1470 1473 1476 1479 1480 1481 1483 1484 1486 1488 1491 1493 1495 1497 1498
1498 1497 1496 1494 1493 1492 1491 1490 1489 1488 1487 1486 1485 1484 1482 1481 1478 1476 1476 1476 1474 1472 1470 1471 1471 1468 1467 1469 1470 1470 1471 1471 1472 1472 1472 1473 1475 1477 1478 1479 1479 1479 1478 1476 1479 1481 1481 1480 1480 1477 1473 1472 1472 1472 1471 1471 1471 1470 1469 1470 1468 1467 1466 1463 1465 1469 1470 1472 1470 1467 1470 1469 1467 1467 1470 1475 1478 1480 1481 1483 1484 1485 1487 1490 1492 1494 1496 1498
1497 1496 1494 1493 1492 1490 1489 1488 1487 1486 1485 1485 1484 1483 1482 1481 1478 1476 1475 1472 1469 1469 1468 1467 1468 1467 1467 1468 1468 1469 1469 1470 1471 1471 1472 1473 1475 1475 1476 1477 1477 1476 1475 1473 1477 1481 1481 1479 1474 1471 1470 1470 1472 1474 1475 1476 1475 1474 1472 1471 1469 1468 1465 1461 1466 1470 1471 1473 1468 1466 1469 1468 1466 1466 1469 1474 1477 1478 1479 1481 1483 1484 1486 1488 1491 1493 1496 1497
1496 1494 1492 1492 1490 1489 1488 1487 1486 1485 1484 1483 1483 1482 1481 1481 1479 1478 1477 1471 1466 1466 1465 1463 1464 1464 1464 1466 1467 1467 1469 1468 1469 1470 1470 1472 1474 1472 1473 1474 1473 1472 1473 1474 1477 1480 1481 1476 1470 1469 1471 1474 1476 1476 1477 1477 1477 1475 1472 1471 1469 1465 1462 1464 1469 1470 1471 1472 1466 1466 1469 1467 1468 1469 1469 1472 1475 1477 1479 1480 1482 1484 1485 1487 1489 1492 1495 1497
1494 1492 1491 1490 1488 1487 1486 1485 1484 1483 1483 1482 1481 1481 1480 1479 1478 1478 1478 1472 1464 1461 1460 1460 1461 1460 1461 1463 1464 1465 1467 1466 1466 1467 1469 1471 1471 1471 1471 1471 1469 1469 1472 1474 1474 1477 1477 1471 1467 1469 1473 1476 1477 1478 1478 1477 1476 1474 1471 1471 1468 1463 1463 1467 1469 1470 1470 1470 1467 1466 1466 1467 1471 1472 1471 1473 1474 1476 1479 1481 1482 1483 1485 1486 1488 1491 1493 1495
1492 1491 1490 1488 1487 1486 1484 1483 1482 1481 1481 1481 1480 1480 1479 1479 1478 1477 1477 1471 1462 1457 1457 1457 1457 1458 1459 1460 1461 1462 1464 1464 1463 1464 1467 1468 1469 1470 1469 1468 1468 1468 1470 1470 1470 1471 1469 1466 1467 1470 1473 1474 1476 1478 1478 1476 1474 1471 1470 1468 1464 1461 1463 1463 1466 1469 1469 1470 1469 1466 1467 1468 1470 1472 1472 1475 1476 1476 1478 1480 1481 1482 1484 1486 1488 1490 1492 1494
1491 1490 1488 1486 1486 1484 1483 1482 1480 1480 1480 1479 1479 1478 1478 1478 1477 1477 1476 1470 1460 1454 1454 1455 1455 1456 1456 1457 1458 1460 1461 1462 1462 1463 1464 1466 1467 1468 1468 1467 1467 1468 1468 1468 1470 1469 1465 1467 1469 1471 1472 1473 1474 1475 1475 1474 1471 1469 1469 1467 1462 1461 1463 1463 1466 1468 1469 1470 1467 1465 1472 1470 1465 1467 1470 1473 1477 1477 1477 1479 1480 1481 1483 1485 1487 1489 1491 1493
1489 1488 1486 1485 1483 1482 1482 1480 1479 1480 1479 1478 1479 1477 1478 1477 1476 1477 1475 1469 1459 1450 1450 1453 1453 1453 1454 1455 1456 1459 1461 1460 1459 1462 1463 1465 1466 1466 1467 1467 1466 1466 1465 1466 1470 1467 1465 1468 1469 1470 1472 1472 1473 1472 1470 1470 1469 1466 1464 1463 1463 1462 1464 1466 1466 1466 1467 1467 1464 1464 1471 1471 1466 1465 1466 1470 1475 1475 1476 1478 1478 1479 1481 1482 1484 1487 1489 1491
1487 1486 1484 1483 1481 1481 1480 1479 1479 1478 1478 1478 1477 1476 1477 1476 1476 1476 1474 1471 1460 1448 1448 1451 1452 1451 1452 1454 1455 1457 1458 1455 1457 1461 1462 1463 1465 1466 1465 1464 1466 1466 1464 1468 1472 1467 1463 1468 1470 1470 1471 1471 1471 1468 1466 1468 1468 1463 1459 1460 1462 1463 1465 1467 1464 1464 1461 1462 1465 1463 1462 1468 1468 1465 1464 1468 1473 1474 1474 1475 1476 1476 1478 1480 1482 1485 1486 1489
1485 1484 1482 1481 1480 1479 1478 1477 1477 1476 1477 1476 1475 1476 1476 1475 1477 1475 1475 1476 1460 1445 1447 1449 1451 1452 1452 1454 1454 1453 1452 1451 1454 1458 1460 1463 1464 1465 1464 1461 1463 1464 1464 1469 1471 1463 1461 1466 1468 1468 1470 1468 1464 1461 1462 1465 1465 1461 1459 1460 1460 1461 1464 1463 1462 1461 1458 1464 1470 1462 1458 1467 1467 1464 1466 1468 1470 1473 1472 1471 1472 1473 1475 1478 1480 1482 1485 1487
1483 1481 1480 1478 1478 1477 1476 1475 1475 1474 1475 1473 1474 1476 1474 1476 1477 1471 1475 1476 1455 1442 1447 1448 1450 1452 1451 1453 1453 1451 1451 1450 1451 1454 1459 1462 1462 1463 1462 1460 1460 1461 1464 1466 1463 1460 1462 1464 1464 1464 1465 1462 1459 1459 1461 1463 1462 1460 1461 1461 1460 1462 1463 1463 1461 1459 1462 1472 1472 1463 1462 1468 1467 1463 1465 1469 1469 1470 1471 1470 1470 1470 1473 1476 1478 1481 1483 1485
1481 1479 1477 1476 1475 1474 1473 1473 1472 1472 1472 1472 1473 1474 1474 1476 1474 1473 1481 1473 1448 1442 1448 1446 1448 1450 1450 1452 1452 1451 1450 1449 1451 1454 1458 1460 1461 1462 1461 1461 1461 1461 1463 1464 1461 1460 1462 1464 1464 1462 1461 1458 1459 1463 1463 1462 1462 1462 1461 1460 1461 1462 1461 1463 1460 1458 1471 1478 1469 1462 1464 1469 1472 1464 1458 1466 1468 1465 1466 1469 1470 1470 1473 1475 1477 1479 1482 1483
1478 1476 1474 1473 1472 1472 1471 1471 1471 1470 1470 1471 1472 1473 1474 1473 1469 1475 1478 1462 1446 1445 1445 1444 1446 1446 1447 1448 1449 1449 1448 1448 1451 1453 1456 1458 1460 1461 1461 1462 1463 1463 1464 1464 1462 1460 1461 1463 1462 1460 1460 1460 1461 1463 1464 1464 1463 1463 1460 1458 1463 1466 1464 1466 1465 1467 1479 1479 1467 1463 1464 1469 1475 1466 1456 1463 1468 1466 1467 1468 1470 1472 1473 1475 1477 1478 1480 1483
1476 1474 1472 1470 1469 1469 1469 1469 1469 1469 1469 1470 1471 1472 1472 1472 1472 1471 1463 1452 1450 1447 1442 1444 1445 1443 1445 1445 1445 1446 1446 1448 1449 1449 1451 1454 1456 1458 1458 1458 1460 1465 1468 1464 1462 1461 1460 1459 1457 1458 1460 1461 1460 1460 1463 1465 1463 1463 1458 1458 1467 1473 1475 1477 1475 1475 1478 1474 1467 1465 1467 1471 1470 1463 1460 1464 1469 1470 1471 1471 1472 1473 1474 1476 1478 1478 1480 1482
1473 1471 1469 1467 1467 1466 1466 1466 1466 1467 1468 1468 1471 1470 1468 1471 1471 1463 1453 1449 1449 1444 1442 1445 1444 1442 1445 1445 1443 1443 1444 1445 1446 1447 1448 1449 1453 1454 1454 1452 1452 1458 1461 1459 1459 1462 1462 1458 1454 1457 1459 1458 1458 1457 1462 1464 1462 1461 1457 1459 1467 1472 1483 1488 1479 1474 1474 1471 1467 1465 1470 1473 1465 1462 1465 1467 1470 1473 1473 1474 1475 1475 1476 1477 1478 1479 1480 1481
1470 1468 1467 1465 1465 1465 1464 1464 1464 1465 1467 1468 1469 1468 1469 1470 1463 1454 1451 1446 1443 1443 1444 1445 1443 1443 1443 1442 1440 1440 1443 1445 1443 1444 1446 1447 1452 1452 1451 1452 1451 1452 1454 1457 1459 1459 1463 1462 1455 1454 1454 1454 1455 1453 1453 1455 1457 1456 1450 1452 1460 1462 1474 1482 1474 1470 1471 1470 1470 1472 1474 1471 1465 1467 1468 1467 1471 1472 1473 1475 1475 1476 1477 1477 1478 1479 1480 1482
1467 1466 1465 1464 1463 1463 1463 1463 1463 1464 1466 1467 1466 1465 1466 1466 1456 1451 1450 1444 1441 1444 1443 1443 1444 1443 1441 1439 1438 1438 1441 1443 1441 1444 1445 1445 1449 1449 1448 1450 1451 1451 1453 1459 1459 1455 1460 1458 1447 1449 1452 1450 1452 1450 1447 1451 1455 1455 1449 1452 1459 1454 1457 1471 1475 1474 1472 1472 1473 1475 1471 1462 1462 1468 1467 1468 1470 1470 1473 1474 1474 1476 1477 1478 1480 1480 1482 1484
1465 1464 1464 1463 1463 1462 1462 1462 1462 1463 1465 1465 1463 1460 1458 1455 1449 1446 1445 1443 1443 1443 1443 1443 1443 1442 1440 1437 1437 1439 1440 1441 1441 1443 1444 1442 1444 1444 1444 1444 1446 1449 1451 1455 1457 1456 1461 1456 1445 1450 1454 1449 1451 1450 1448 1453 1455 1455 1455 1456 1455 1449 1450 1466 1478 1478 1478 1478 1472 1470 1468 1462 1463 1468 1465 1467 1470 1469 1472 1473 1474 1477 1477 1479 1481 1482 1484 1485
1464 1463 1463 1462 1462 1461 1460 1460 1461 1462 1463 1463 1460 1456 1450 1447 1445 1444 1443 1444 1445 1443 1445 1445 1442 1441 1440 1436 1435 1437 1439 1441 1440 1442 1443 1442 1442 1441 1441 1443 1443 1446 1446 1448 1450 1451 1455 1455 1447 1448 1451 1451 1453 1452 1450 1452 1451 1454 1457 1453 1451 1454 1455 1461 1473 1478 1480 1481 1473 1469 1471 1467 1468 1471 1467 1466 1470 1471 1473 1473 1475 1477 1478 1480 1481 1483 1485 1487
1463 1462 1462 1462 1460 1458 1458 1458 1459 1461 1462 1461 1458 1453 1449 1446 1445 1445 1445 1446 1445 1444 1445 1444 1441 1441 1440 1438 1436 1434 1437 1440 1439 1440 1440 1441 1444 1442 1440 1443 1444 1444 1444 1446 1449 1449 1452 1456 1451 1447 1449 1451 1451 1452 1453 1452 1451 1452 1452 1447 1451 1464 1465 1462 1471 1479 1480 1482 1476 1471 1470 1465 1463 1467 1467 1469 1472 1473 1474 1475 1476 1477 1478 1481 1483 1486 1488 1489
1462 1461 1461 1460 1458 1456 1455 1456 1458 1460 1461 1458 1456 1453 1449 1447 1446 1447 1448 1447 1446 1446 1444 1442 1442 1442 1440 1439 1438 1436 1437 1437 1436 1438 1439 1439 1444 1445 1443 1443 1445 1446 1446 1446 1447 1448 1451 1457 1456 1450 1449 1451 1450 1451 1452 1451 1452 1453 1451 1447 1450 1458 1460 1459 1463 1467 1471 1477 1476 1476 1474 1465 1461 1465 1470 1474 1475 1475 1476 1476 1477 1479 1482 1484 1486 1489 1490 1491
1461 1460 1460 1460 1458 1455 1454 1455 1458 1459 1457 1454 1452 1449 1448 1447 1447 1448 1449 1448 1447 1446 1444 1443 1444 1444 1442 1440 1439 1438 1437 1436 1435 1436 1437 1439 1444 1447 1446 1446 1447 1448 1449 1448 1448 1449 1452 1458 1458 1452 1450 1452 1451 1449 1448 1447 1449 1452 1453 1453 1453 1454 1456 1458 1458 1457 1462 1468 1472 1478 1476 1467 1469 1475 1476 1477 1479 1478 1478 1478 1481 1484 1486 1488 1490 1491 1493 1494
1460 1459 1459 1461 1459 1457 1456 1456 1456 1455 1452 1451 1450 1448 1448 1449 1447 1447 1448 1449 1448 1446 1446 1445 1445 1444 1444 1442 1440 1439 1439 1437 1435 1435 1435 1438 1442 1446 1448 1449 1448 1448 1449 1450 1450 1450 1453 1456 1456 1453 1452 1451 1449 1448 1448 1447 1446 1447 1448 1448 1450 1453 1456 1464 1466 1459 1457 1461 1464 1470 1471 1469 1477 1482 1479 1480 1482 1480 1480 1481 1484 1487 1489 1491 1493 1494 1495 1495
1460 1459 1461 1461 1459 1459 1458 1455 1454 1453 1451 1449 1449 1449 1449 1450 1448 1446 1447 1448 1448 1447 1447 1447 1445 1445 1445 1443 1441 1440 1440 1438 1436 1436 1436 1436 1439 1443 1448 1450 1449 1448 1449 1450 1451 1452 1453 1455 1455 1454 1450 1447 1448 1451 1451 1451 1448 1447 1447 1445 1444 1446 1451 1461 1466 1460 1460 1462 1460 1462 1467 1474 1483 1483 1480 1482 1482 1480 1482 1483 1486 1489 1491 1493 1494 1495 1496 1496
1462 1462 1462 1461 1459 1459 1458 1453 1452 1453 1451 1449 1450 1450 1450 1450 1449 1447 1447 1447 1446 1446 1447 1446 1445 1445 1445 1444 1443 1441 1441 1440 1437 1438 1437 1435 1439 1445 1448 1450 1450 1448 1449 1451 1454 1456 1456 1456 1458 1456 1449 1446 1449 1450 1450 1452 1451 1449 1449 1449 1449 1448 1449 1454 1454 1453 1459 1463 1463 1466 1469 1476 1484 1484 1481 1482 1481 1481 1482 1484 1488 1490 1492 1494 1495 1496 1498 1498
1464 1463 1463 1461 1459 1458 1457 1455 1453 1452 1451 1451 1451 1450 1450 1450 1450 1448 1447 1447 1447 1447 1447 1446 1445 1447 1445 1445 1445 1443 1443 1444 1440 1438 1437 1436 1441 1448 1448 1449 1449 1449 1451 1455 1457 1458 1459 1460 1460 1458 1456 1456 1456 1454 1453 1453 1450 1450 1452 1455 1456 1453 1453 1454 1451 1452 1459 1459 1460 1465 1468 1476 1485 1484 1481 1481 1481 1483 1484 1486 1490 1491 1493 1496 1497 1499 1500 1500
1463 1462 1463 1462 1460 1459 1460 1461 1459 1455 1453 1453 1452 1452 1451 1451 1452 1451 1449 1449 1450 1449 1448 1447 1447 1448 1446 1446 1447 1444 1444 1446 1443 1441 1439 1439 1443 1447 1448 1448 1448 1448 1451 1455 1456 1459 1465 1470 1468 1464 1463 1464 1462 1459 1458 1454 1451 1455 1458 1459 1460 1458 1457 1457 1453 1456 1461 1458 1456 1459 1466 1480 1487 1483 1482 1484 1485 1488 1489 1490 1492 1493 1495 1497 1498 1501 1502 1502
1464 1463 1463 1463 1462 1462 1463 1464 1462 1459 1457 1456 1455 1455 1453 1451 1452 1452 1451 1451 1452 1451 1450 1450 1449 1449 1447 1446 1447 1446 1445 1445 1444 1442 1441 1441 1444 1447 1448 1447 1448 1449 1451 1453 1455 1460 1469 1475 1476 1473 1470 1467 1464 1462 1460 1455 1454 1458 1460 1460 1461 1461 1460 1458 1454 1456 1457 1456 1457 1457 1464 1481 1487 1484 1488 1491 1491 1493 1493 1493 1495 1496 1498 1499 1500 1503 1503 1504
1466 1468 1468 1465 1464 1464 1465 1466 1464 1462 1460 1458 1458 1458 1455 1452 1452 1453 1452 1452 1453 1453 1452 1451 1450 1449 1449 1448 1446 1447 1447 1445 1445 1445 1444 1443 1445 1447 1449 1448 1449 1451 1452 1453 1454 1459 1469 1478 1478 1476 1474 1471 1467 1464 1460 1457 1458 1460 1462 1462 1462 1461 1460 1460 1462 1462 1458 1457 1461 1460 1464 1478 1485 1488 1495 1497 1495 1496 1496 1496 1498 1498 1500 1502 1502 1503 1504 1506
1468 1471 1472 1469 1469 1469 1470 1470 1468 1465 1463 1461 1460 1460 1457 1455 1455 1456 1456 1454 1453 1453 1452 1452 1452 1450 1450 1449 1447 1449 1449 1447 1449 1451 1449 1447 1447 1447 1449 1449 1450 1452 1453 1453 1454 1456 1465 1476 1477 1476 1476 1474 1470 1468 1464 1461 1463 1464 1465 1465 1465 1463 1463 1466 1470 1469 1464 1464 1467 1466 1470 1480 1487 1493 1499 1500 1499 1500 1499 1500 1500 1501 1503 1503 1503 1505 1506 1507
1470 1472 1472 1471 1471 1473 1474 1474 1471 1469 1468 1465 1463 1462 1460 1459 1460 1461 1459 1456 1455 1455 1454 1455 1455 1451 1449 1449 1448 1450 1453 1452 1453 1456 1454 1452 1450 1448 1449 1450 1451 1452 1451 1452 1455 1455 1460 1470 1474 1473 1475 1476 1475 1474 1472 1469 1469 1470 1469 1469 1468 1467 1468 1470 1472 1471 1469 1472 1474 1474 1479 1487 1493 1497 1501 1501 1502 1502 1502 1502 1502 1503 1504 1504 1505 1507 1507 1509
1472 1473 1473 1471 1471 1473 1474 1474 1473 1471 1471 1470 1468 1467 1465 1463 1464 1463 1462 1461 1460 1459 1458 1457 1457 1453 1451 1451 1451 1454 1459 1458 1456 1458 1458 1456 1454 1452 1452 1453 1453 1452 1451 1453 1456 1455 1458 1468 1471 1469 1472 1476 1476 1477 1477 1476 1475 1475 1475 1475 1473 1472 1472 1473 1475 1476 1475 1477 1480 1483 1488 1495 1498 1499 1501 1503 1503 1503 1503 1504 1503 1505 1506 1506 1507 1508 1508 1509
1475 1474 1473 1472 1473 1473 1473 1473 1473 1473 1474 1475 1476 1475 1471 1468 1468 1466 1465 1465 1465 1464 1463 1461 1459 1456 1454 1455 1456 1459 1462 1461 1460 1461 1460 1459 1457 1456 1456 1456 1455 1454 1452 1453 1456 1455 1458 1466 1470 1469 1470 1472 1473 1477 1478 1478 1480 1479 1478 1481 1481 1480 1480 1481 1484 1484 1481 1480 1481 1483 1487 1494 1499 1500 1502 1504 1504 1505 1505 1505 1506 1507 1508 1508 1509 1510 1511 1511
1476 1476 1475 1473 1474 1475 1474 1473 1473 1474 1477 1480 1480 1480 1478 1474 1471 1468 1467 1468 1467 1466 1466 1464 1461 1458 1457 1459 1461 1463 1463 1463 1462 1462 1462 1461 1460 1459 1459 1458 1458 1457 1454 1454 1455 1455 1456 1463 1468 1467 1467 1467 1469 1472 1475 1479 1483 1481 1479 1483 1486 1486 1488 1489 1490 1490 1487 1484 1481 1480 1485 1493 1498 1499 1502 1504 1506 1507 1508 1508 1509 1510 1510 1511 1511 1512 1513 1514